EW9634 Weather Reports


Display with metric or nautical units.
time (UTC)temp
F
wind
direction
speed
MPH
gust
MPH
rain 1hr
in
rain 24hr
in
rain mn
in
humidity
%
barometer
mb
20260504213004 80 203 4.0 9.0 0.00 0.00 0.00 52 999.7
20260504212003 80 225 9.0 13.0 0.00 0.00 0.00 55 999.8
20260504211003 79 248 8.0 11.0 0.00 0.00 0.00 53 999.9
20260504210008 79 225 6.0 11.0 0.00 0.00 0.00 53 999.9
20260504205003 79 203 9.0 15.0 0.00 0.00 0.00 52 1000.1
20260504204003 80 225 5.0 7.0 0.00 0.00 0.00 54 1000.2
20260504203023 80 225 8.0 10.0 0.00 0.00 0.00 52 1000.2
20260504202023 80 248 8.0 12.0 0.00 0.00 0.00 51 1000.2
20260504201002 80 203 9.0 15.0 0.00 0.00 0.00 51 1000.2
20260504200003 80 203 10.0 14.0 0.00 0.00 0.00 54 1000.3
20260504195003 79 203 8.0 12.0 0.00 0.00 0.00 52 1000.3
20260504194003 79 203 8.0 10.0 0.00 0.00 0.00 53 1000.2
20260504193004 79 180 14.0 19.0 0.00 0.00 0.00 52 1000.2
20260504192003 79 225 7.0 12.0 0.00 0.00 0.00 54 1000.3
20260504191003 79 225 5.0 8.0 0.00 0.00 0.00 55 1000.4
20260504190002 78 203 8.0 10.0 0.00 0.00 0.00 52 1000.4
20260504185003 78 225 12.0 16.0 0.00 0.00 0.00 54 1000.4
20260504184003 78 248 10.0 12.0 0.00 0.00 0.00 52 1000.5
20260504183003 78 248 7.0 9.0 0.00 0.00 0.00 52 1000.6
20260504182002 77 225 6.0 9.0 0.00 0.00 0.00 51 1000.5
20260504181023 77 203 10.0 15.0 0.00 0.00 0.00 52 1000.6
20260504180003 76 248 11.0 15.0 0.00 0.00 0.00 52 1000.7
20260504175043 76 248 12.0 17.0 0.00 0.00 0.00 53 1000.9
20260504174023 76 248 10.0 13.0 0.00 0.00 0.00 55 1000.9
20260504173023 75 248 8.0 12.0 0.00 0.00 0.00 55 1000.9
20260504172003 75 270 11.0 14.0 0.00 0.00 0.00 55 1001.0
20260504171003 74 203 6.0 14.0 0.00 0.00 0.00 57 1001.1
20260504151003 70 203 11.0 15.0 0.00 0.00 0.00 59 1001.4
20260504141002 68 203 9.0 13.0 0.00 0.00 0.00 62 1001.4
20260504081003 67 203 6.0 10.0 0.00 0.00 0.00 55 1003.2
20260504045102 65 225 1.0 4.0 0.00 0.00 0.00 64 1004.7
20260504044102 64 180 1.0 2.0 0.00 0.00 0.00 67 1004.6
20260504043101 62 203 1.0 2.0 0.00 0.00 0.00 73 1004.6
20260504042654 62 0.0 0.0 0.00 0.00 0.00 68 1004.6
20260504041401 63 0.0 0.0 0.00 0.00 0.00 68 1004.7
20260504040303 63 0.0 1.0 0.00 0.00 0.00 67 1004.7
20260504035305 63 0.0 1.0 0.00 0.00 0.00 66 1004.7
20260504034303 63 0.0 1.0 0.00 0.00 0.00 67 1004.8
20260504033324 63 0.0 0.0 0.00 0.00 0.00 68 1004.9
20260504032304 63 180 1.0 1.0 0.00 0.00 0.00 70 1005.0
20260504031344 65 180 1.0 1.0 0.00 0.00 0.00 67 1005.1
20260504030324 66 180 1.0 1.0 0.00 0.00 0.00 62 1005.1
20260504025304 68 203 1.0 1.0 0.00 0.00 0.00 56 1005.3
20260504024303 67 0.0 1.0 0.00 0.00 0.00 62 1005.4
20260504023323 67 180 2.0 3.0 0.00 0.00 0.00 63 1005.2
20260504022305 67 0 2.0 3.0 0.00 0.00 0.00 62 1005.1
20260504021305 67 0.0 1.0 0.00 0.00 0.00 64 1005.1
20260504020323 67 0 1.0 1.0 0.00 0.00 0.00 61 1004.9
20260504015304 69 0.0 0.0 0.00 0.00 0.00 58 1005.0
20260504014303 71 0 2.0 3.0 0.00 0.00 0.00 54 1005.1
20260504013303 70 338 2.0 3.0 0.00 0.00 0.00 54 1005.0
20260504012304 70 248 1.0 2.0 0.00 0.00 0.00 56 1004.9
20260504011304 70 0.0 1.0 0.00 0.00 0.00 60 1004.9
20260504010303 72 0.0 0.0 0.00 0.00 0.00 52 1004.9
20260504005305 72 0.0 0.0 0.00 0.00 0.00 52 1005.0
20260504004304 72 203 1.0 2.0 0.00 0.00 0.00 55 1005.1
20260504003304 74 0.0 0.0 0.00 0.00 0.00 52 1005.2
20260504002304 75 0.0 1.0 0.00 0.00 0.00 46 1005.2
20260504001323 76 203 1.0 2.0 0.00 0.00 0.00 41 1005.3
20260504000303 77 0.0 1.0 0.00 0.00 0.00 40 1005.5
20260503235304 78 225 2.0 3.0 0.00 0.00 0.00 38 1005.6
20260503234323 78 225 4.0 5.0 0.00 0.00 0.00 37 1005.7
20260503233323 78 203 5.0 8.0 0.00 0.00 0.00 37 1005.9
20260503232305 79 225 7.0 9.0 0.00 0.00 0.00 36 1006.0
20260503231323 79 225 5.0 8.0 0.00 0.00 0.00 35 1006.1
20260503230303 80 225 7.0 12.0 0.00 0.00 0.00 32 1006.2
20260503225304 81 225 6.0 9.0 0.00 0.00 0.00 34 1006.0
20260503224303 81 248 8.0 13.0 0.00 0.00 0.00 32 1006.1
20260503223302 82 248 13.0 18.0 0.00 0.00 0.00 30 1006.2
20260503222304 82 270 10.0 14.0 0.00 0.00 0.00 31 1006.2
20260503221303 82 248 9.0 11.0 0.00 0.00 0.00 33 1006.4
20260503220303 82 225 12.0 15.0 0.00 0.00 0.00 36 1006.6
20260503215304 82 225 12.0 17.0 0.00 0.00 0.00 37 1006.6
20260503214302 82 248 13.0 18.0 0.00 0.00 0.00 35 1006.7